Location: STAR School
(35.3054°N, 111.2976°W)
Time: 11:17:49
(UTC-07:00)

deb Explorer IX - Pass Details

Date: 01 June 2019
Orbit: 537 x 1115 km, 38.8° (Epoch: 19 June)

Event Time Altitude Azimuth Distance (km) Brightness Sun altitude
Exits shadow 02:31:52 46° 86° (E) 723 ? -25.0°
Drops below altitude 10° 02:34:48 10° 100° (E) 1,784 ? -24.7°
Sets 02:37:03 0° 102° (ESE) 2,696 ? -24.4°
